OTB-3-GAZELLE

Last updated on Sun Oct 06 2024 00:02:35 GMT+0000 (Coordinated Universal Time)

1 54023U 22127A 24279.50417485 .00001145 00000+0 36010-3 0 9999 2 54023 98.3523 271.4202 0011982 257.8297 102.1550 14.42252178105023
UTC large
Height (km)
Speed (km/s)
/
Latitude / Longitude
Inclination (degrees)
Orbital Period (minutes)
Azimuth
Elevation
Range (km)
Doppler Factor

Next 0 passes for location: London (51.5072 / 0.1276)

Sorry there are no passes over London.